Regional Weather Roundup
Issued by NWS Boston, MA

Current Version | Previous Version | Text Only | Print | Product List | Glossary Off
Versions: 1 2 3 4 5 6 7 8 9 10 11 12 13 14 15 16 17 18 19 20 21 22 23 24 25 26 27 28
000 ASUS41 KBOX 222110 RWRBOX REGIONAL WEATHER ROUNDUP NATIONAL WEATHER SERVICE TAUNTON MA 400 PM EST THU FEB 22 2018 NOTE: "FAIR" INDICATES FEW OR NO CLOUDS BELOW 12,000 FEET WITH NO SIGNIFICANT WEATHER AND/OR OBSTRUCTIONS TO VISIBILITY. MAZALL-222200- EASTERN MASSACHUSETTS CITY SKY/WX TMP DP RH WIND PRES REMARKS BOSTON LGT SNOW 32 29 88 NE9 30.65 VSB 1 WCI 24 BEVERLY LGT SNOW 33 30 88 N3 30.65R VSB 1 LAWRENCE LGT SNOW 35 31 85 CALM 30.67R VSB 3/4 BEDFORD LGT SNOW 33 31 92 NE7 30.64R VSB 3/4 WCI 27 BLUE HILL N/A N/A N/A N/A NE8 30.60R NORWOOD LGT SNOW 35 28 75 NE7 30.64R WCI 29 MARSHFIELD MIX PCPN 37 27 65 NE8 30.63R WCI 31 PLYMOUTH LGT RAIN 39 28 64 NE10 30.62R TAUNTON LGT RAIN 37 27 67 VRB7 30.61R WCI 32 NEW BEDFORD LGT RAIN 36 29 75 NE13 30.60R WCI 27 $$ MAZALL-222200- CAPE COD AND THE ISLANDS CITY SKY/WX TMP DP RH WIND PRES REMARKS FALMOUTH CLOUDY 37 27 65 NE10G16 30.61 WCI 30 HYANNIS CLOUDY 39 28 64 NE12 30.59R WCI 32 CHATHAM CLOUDY 39 29 67 NE10 30.61R PROVINCETOWN LGT RAIN 37 28 70 N14 30.63R WCI 28 NANTUCKET CLOUDY 40 34 79 NE20 30.57R WCI 30 MARTHAS VNYRD CLOUDY 39 28 64 N10 30.59R $$ MAZALL-222200- CENTRAL AND WESTERN MASSACHUSETTS CITY SKY/WX TMP DP RH WIND PRES REMARKS WORCESTER LGT SNOW 31 28 89 N6 30.60R VSB 3/4 WCI 25 FITCHBURG LGT SNOW 35 33 92 N6 30.66R VSB 3/4 WCI 30 ORANGE LGT SNOW 31 29 92 N9 30.65R VSB 1 WCI 23 SPRINGFIELD LGT SNOW 33 31 93 NE9 30.63R FOG WCI 25 WESTFIELD LGT SNOW 33 32 96 N7 30.64R VSB 1 WCI 27 NORTH ADAMS SNOW 30 29 96 W6 30.64R VSB 1/2 WCI 24 PITTSFIELD SNOW 33 30 88 NE7 30.59R VSB 1/2 WCI 27 $$ RIZALL-222200- RHODE ISLAND CITY SKY/WX TMP DP RH WIND PRES REMARKS PROVIDENCE LGT RAIN 37 31 78 N10 30.62R WCI 30 NEWPORT CLOUDY 39 26 59 NE13 30.59R WCI 31 BLOCK ISLAND CLOUDY 39 30 70 NE12 30.60R WCI 32 SMITHFIELD LGT SNOW 34 30 85 MISG 30.62R FOG WESTERLY CLOUDY 43 28 55 NE9 30.61R $$ CTZALL-222200- CONNECTICUT CITY SKY/WX TMP DP RH WIND PRES REMARKS BRADLEY INTL LGT SNOW 32 31 96 N10 30.65R FOG WCI 24 HARTFORD LGT SNOW 34 30 85 N12 30.64R FOG WCI 25 BRIDGEPORT LGT RAIN 38 31 76 N13 30.59R WCI 30 DANBURY LGT RAIN 36 33 89 NE5 30.62R FOG GROTON CLOUDY 43 31 62 NE10 30.59R NEW HAVEN LGT RAIN 37 31 78 N12 30.59R WCI 29 CHESTER RAIN 37 34 87 MISG 30.58R MERIDEN LGT RAIN 34 31 88 N8 30.61R FOG WCI 27 WILLIMANTIC LGT RAIN 37 34 89 N3 30.62R OXFORD LGT RAIN 33 31 92 NE8 30.59S WCI 26 $$ MEZ002-015-021-024-NHZ003-005-008-011-012-014-VTZ005-008-222200- NORTHERN NEW ENGLAND CITY SKY/WX TMP DP RH WIND PRES REMARKS PORTLAND ME CLOUDY 36 22 56 W7 30.64R WCI 30 BANGOR ME CLOUDY 32 11 41 NW8 30.63R WCI 25 CONCORD NH SNOW 30 28 92 NW5 30.65R VSB 1/2 WCI 25 MANCHESTER NH SNOW 32 30 92 NW7 30.64S VSB 1/2 WCI 26 NASHUA NH LGT SNOW 32 31 96 NW7 30.66R VSB 3/4 WCI 26 PORTSMOUTH NH SNOW 33 31 95 CALM 30.63 VSB 1/4 JAFFREY NH SNOW 31 30 96 CALM 30.61S VSB 1/4 KEENE NH SNOW 30 28 92 N6 30.66R VSB 1/2 WCI 24 BURLINGTON VT CLOUDY 29 14 53 NW8 30.69S WCI 21 MT. WASHINGTON CLOUDY 16 -8 35 NW35 N/A WCI -6 $$ NYZ052-076-222200- EASTERN NEW YORK CITY SKY/WX TMP DP RH WIND PRES REMARKS ALBANY LGT SNOW 30 26 85 NE5 30.69S VSB 1 WCI 25 NEW YORK CITY LGT RAIN 41 34 76 NE12 30.59S $$ ANZALL-222200- MARINE OBSERVATIONS STATION/POSITION TIME TEMP WIND PRES VSBY WAVE AIR SEA DIR/SP/G HT/PER (UTC) (F) (DEG/KT/KT) (MB) (MI) (FT/S) BOSTON BUOY 2050 34 40 20/ 12/ 16 1037.4R 3/ 6 BUZZARDS BAY 2000 38 40/ 19/ 20 1036.1R NANTUCKET SOUND 2050 38 38 30/ 16/ 17 1035.7R 2/ 4 MASS BAY-STELLWA 2004 37 40 1035.7R 3/ 5 ISLE OF SHOALS 2100 32 40/ 5/ 6 1037.7R S OF BLOCK IS 2043 39 N/A 4/ 4 $$ ......................KEY......................... SKY/WX - SKY CONDITION/PRESENT WEATHER TMP - TEMPERATURE IN FAHRENHEIT DWPT - DEWPOINT IN FAHRENHEIT RH - RELATIVE HUMIDITY IN PERCENT WIND - DIRECTION AND SPEED IN MPH PRES - MEAN SEA LEVEL PRESSURE IN INCHES OF HG WCI - WIND CHILL INDEX VSB - VISIBILITY IN MILES HX - HEAT INDEX TC - TEMPERATURE IN CELSIUS VRB - VARIABLE WIND DIRECTION N/A - NOT AVAILABLE

USA.gov is the U.S. government's official web portal to all federal, state and local government web resources and services.